| time (UTC) | temp C | wind direction | speed KPH | gust KPH | rain 1hr cm | rain 24hr cm | rain mn cm | humidity % | barometer mb |
| 20260506072159 | 16 | 291 | 0.0 | 1.6 | 0.00 | 0.00 | 0.00 | 81 | 1010.2 |
| 20260506062154 | 16 | 333 | 4.8 | 4.8 | 0.00 | 0.00 | 0.00 | 82 | 1010.1 |
| 20260506042148 | 20 | 333 | 4.8 | 8.0 | 0.00 | 0.81 | 0.81 | 81 | 1009.5 |
| 20260506035149 | 21 | 333 | 3.2 | 3.2 | 0.00 | 0.81 | 0.81 | 81 | 1009.0 |
| 20260506032148 | 21 | 346 | 4.8 | 8.0 | 0.00 | 0.81 | 0.81 | 81 | 1008.7 |
| 20260506025148 | 22 | 347 | 0.0 | 1.6 | 0.00 | 0.81 | 0.81 | 81 | 1007.8 |
| 20260506022147 | 20 | 137 | 0.0 | 1.6 | 0.00 | 0.81 | 0.81 | 95 | 1006.9 |
| 20260506015143 | 20 | 5 | 0.0 | 0.0 | 0.00 | 0.81 | 0.81 | 98 | 1006.5 |
| 20260506012141 | 21 | 337 | 0.0 | 1.6 | 0.00 | 0.81 | 0.81 | 99 | 1006.4 |
| 20260506005136 | 24 | 319 | 0.0 | 0.0 | 0.00 | 0.81 | 0.81 | 99 | 1005.3 |
| 20260506002131 | 23 | 321 | 0.0 | 0.0 | 0.18 | 0.81 | 0.81 | 98 | 1005.4 |
| 20260505235131 | 28 | 310 | 1.6 | 1.6 | 0.00 | 0.00 | 0.00 | 76 | 1004.5 |
| 20260505232131 | 30 | 189 | 4.8 | 8.0 | 0.00 | 0.00 | 0.00 | 73 | 1004.3 |
| 20260505225131 | 31 | 204 | 6.4 | 9.7 | 0.00 | 0.00 | 0.00 | 69 | 1003.9 |
| 20260505222128 | 31 | 151 | 4.8 | 8.0 | 0.00 | 0.00 | 0.00 | 66 | 1003.7 |
| 20260505215125 | 32 | 186 | 4.8 | 4.8 | 0.00 | 0.00 | 0.00 | 65 | 1004.0 |
| 20260505212124 | 32 | 163 | 4.8 | 9.7 | 0.00 | 0.00 | 0.00 | 62 | 1004.2 |
| 20260505205125 | 33 | 154 | 3.2 | 8.0 | 0.00 | 0.00 | 0.00 | 57 | 1004.6 |
| 20260505202122 | 32 | 146 | 1.6 | 3.2 | 0.00 | 0.00 | 0.00 | 60 | 1004.9 |
| 20260505195123 | 31 | 289 | 3.2 | 3.2 | 0.00 | 0.00 | 0.00 | 65 | 1005.3 |
| 20260505192123 | 30 | 182 | 3.2 | 4.8 | 0.00 | 0.00 | 0.00 | 70 | 1005.1 |
| 20260505185120 | 30 | 199 | 3.2 | 3.2 | 0.00 | 0.00 | 0.00 | 72 | 1005.5 |
| 20260505182118 | 28 | 109 | 8.0 | 11.3 | 0.00 | 0.00 | 0.00 | 74 | 1005.7 |
| 20260505175115 | 28 | 134 | 4.8 | 4.8 | 0.00 | 0.00 | 0.00 | 73 | 1006.0 |
| 20260505172114 | 28 | 195 | 8.0 | 9.7 | 0.00 | 0.00 | 0.00 | 74 | 1005.9 |
| 20260505165114 | 26 | 180 | 3.2 | 4.8 | 0.00 | 0.00 | 0.00 | 77 | 1005.9 |
| 20260505162109 | 27 | 123 | 4.8 | 9.7 | 0.00 | 0.00 | 0.00 | 75 | 1005.8 |
| 20260505152104 | 25 | 200 | 4.8 | 4.8 | 0.00 | 0.00 | 0.00 | 80 | 1006.0 |
| 20260505122050 | 21 | 171 | 14.5 | 20.9 | 0.00 | 0.00 | 0.00 | 90 | 1004.7 |
| 20260505115045 | 21 | 198 | 1.6 | 1.6 | 0.00 | 0.00 | 0.00 | 90 | 1004.9 |
| 20260505112044 | 21 | 187 | 4.8 | 4.8 | 0.00 | 0.00 | 0.00 | 90 | 1004.6 |
| 20260505102039 | 21 | 158 | 3.2 | 8.0 | 0.00 | 0.00 | 0.00 | 89 | 1004.6 |
| 20260505095037 | 22 | 189 | 6.4 | 9.7 | 0.00 | 0.00 | 0.00 | 88 | 1004.9 |
| 20260505092037 | 21 | 169 | 4.8 | 8.0 | 0.00 | 0.00 | 0.00 | 89 | 1005.1 |
| 20260505085033 | 21 | 188 | 6.4 | 11.3 | 0.00 | 0.00 | 0.00 | 89 | 1005.2 |
| 20260505082033 | 21 | 173 | 8.0 | 11.3 | 0.00 | 0.00 | 0.00 | 89 | 1005.5 |